Location: Unspecified
(0.0000°N, 0.0000°E)
Time: 10:22:00
(UTC+00:00)

Vanguard 2 Rocket - Pass Details

Date: 22 December 2018
Orbit: 554 x 3327 km, 32.9° (Epoch: 18 January)

Event Time Altitude Azimuth Distance (km) Brightness Sun altitude
Rises 15:29:22 0° 254° (WSW) 5,196 11.8 33.8°
Reaches altitude 10° 15:33:37 10° 240° (WSW) 4,643 12.0 32.9°
Maximum altitude 15:43:39 22° 193° (SSW) 4,524 11.2 30.6°
Drops below altitude 10° 15:56:52 10° 149° (SSE) 6,166 11.2 27.7°
Sets 16:04:04 0° 135° (SE) 7,315 11.3 26.1°
